User: anonymous   Login
Location: Unspecified
(0.0000°N, 0.0000°E)
Time: 17:39:57
(UTC+00:00)
Language:

APRIZESAT 6 - Orbit

View from above orbital plane
View from above orbital plane
View from above satellite
View from above satellite

Ground track
Ground track

The orbit data is extracted from the following two-line orbital elements,

1 37793U 11044F   21024.78196366  .00000070  00000-0  19797-4 0  9998
2 37793  98.4280 213.5047 0046040 222.7973 147.7885 14.72506150507003
Epoch (UTC): 24 January 2021 18:46:01
Eccentricity: 0.0046040
inclination: 98.4280°
perigee height: 621 km
apogee height: 685 km
right ascension of ascending node: 213.5047°
argument of perigee: 222.7973°
revolutions per day: 14.72506150
mean anomaly at epoch: 147.7885°
orbit number at epoch: 50700

The dashed part of the orbit path shows where the satellite is in the earth's shadow,  

DLR